Find Starlink 2535

NORAD ID: 48295 Int'l Des: 2021-036 Owner: SPXS Country: US Constellation: starlink operational
LEOCIRCULAR

实时位置

正在加载3D地球...

关于 Starlink 2535

正在加载描述...

即将过境

Passes for default location (London). Set your location on the main map for personalized predictions.

高度历史

Loading altitude history...

两行轨道根数

1 48295U 21036V 26121.87729923 -.00004139 00000-0 -12176-3 0 9998
2 48295 53.1586 188.2589 0000956 83.1862 276.9248 15.31680586276553
Epoch: May 1, 2026 • Age: 10 hours

当前状态

高度 475.2 km
速度 7.63 km/s
星下点 46.22°N, 83.74°W
发射日期 Apr 29, 2021
运行时间 5 years
类型 internet

技术详情

分类 Payload
质量 260.00 kg
干质量 248.00 kg
总质量 260.00 kg
长度 0.20 m
直径 2.80 m
跨度 9.00 m
形状 Box + pan
制造商 SPXS
平台类型 Starlink
阶段状态 In Orbit
所有者/国家 SPXS/US

Most Searched